Location: Franzen
(48.6167°N, 15.3833°E)
Time: 09:19:39
(UTC+00:00)

CZ-4C R/B - Pass Details

Date: 22 April 2021
Orbit: 611 x 1390 km, 63.4° (Epoch: 16 May)

Event Time Altitude Azimuth Distance (km) Brightness Sun altitude
Rises 22:32:23 0° 314° (NW) 3,612 6.2 -28.6°
Reaches altitude 10° 22:35:01 10° 324° (NW) 2,783 5.6 -28.7°
Maximum altitude 22:41:08 36° 30° (NNE) 1,739 4.1 -28.8°
Drops below altitude 10° 22:48:16 10° 94° (E) 3,271 5.2 -28.8°
Sets 22:51:36 0° 103° (ESE) 4,323 5.7 -28.8°
